This is the latest recevied weather packets stored in our database for station/object IZ1RFL-3. If no packets are shown the sender has not sent any weather packets the latest 10 day(s).
| Time | Temp. | Humidity | Pressure | Rain* | Wind** | Luminosity | Snow |
|---|---|---|---|---|---|---|---|
| 1777655762 | 18.89° C | 34% | 1026 hPa | - | - | - | - |
| 1777654862 | 18.89° C | 34% | 1026 hPa | - | - | - | - |
| 1777653962 | 18.89° C | 33% | 1026.1 hPa | - | - | - | - |
| 1777653062 | 18.89° C | 32% | 1026.3 hPa | - | - | - | - |
| 1777652162 | 18.89° C | 32% | 1026.4 hPa | - | - | - | - |
| 1777651262 | 19.44° C | 31% | 1026.6 hPa | - | - | - | - |
| 1777650362 | 18.89° C | 31% | 1026.6 hPa | - | - | - | - |
| 1777649462 | 19.44° C | 30% | 1026.8 hPa | - | - | - | - |
| 1777647662 | 19.44° C | 29% | 1027.1 hPa | - | - | - | - |
| 1777646762 | 20° C | 29% | 1027.3 hPa | - | - | - | - |
| 1777645862 | 19.44° C | 27% | 1027.4 hPa | - | - | - | - |
| 1777644962 | 19.44° C | 28% | 1027.5 hPa | - | - | - | - |
| 1777644062 | 19.44° C | 26% | 1027.7 hPa | - | - | - | - |
| 1777643162 | 20° C | 25% | 1027.8 hPa | - | - | - | - |
| 1777642262 | 20.56° C | 25% | 1028.1 hPa | - | - | - | - |
| 1777641362 | 20.56° C | 27% | 1028.3 hPa | - | - | - | - |
| 1777640462 | 21.11° C | 25% | 1028.5 hPa | - | - | - | - |
| 1777639562 | 20.56° C | 28% | 1028.8 hPa | - | - | - | - |
| 1777638662 | 19.44° C | 27% | 1028.9 hPa | - | - | - | - |
| 1777637762 | 19.44° C | 25% | 1029.1 hPa | - | - | - | - |
| 1777636862 | 18.33° C | 27% | 1029.2 hPa | - | - | - | - |
| 1777635962 | 18.33° C | 28% | 1029.3 hPa | - | - | - | - |
| 1777635062 | 18.33° C | 28% | 1029.4 hPa | - | - | - | - |
| 1777634162 | 18.33° C | 31% | 1029.4 hPa | - | - | - | - |
| 1777633262 | 17.78° C | 31% | 1029.5 hPa | - | - | - | - |
* Rain since midnight (hover to see other rain measurements)
** Current wind speed in m/s (hover to see current wind gust speed)